Time,TemperatureF,DewpointF,PressureIn,WindDirection,WindDirectionDegrees,WindSpeedMPH,WindSpeedGustMPH,Humidity,HourlyPrecipIn,Conditions,Clouds,dailyrainin,SoftwareType,DateUTC
2013-05-08 00:00:00,60.1,57.4,30.06,West,263,0.0,0.0,91,0.00,CLR,,0.00,WeatherDisplay:10.37,2013-05-08 04:00:00,
2013-05-08 00:15:00,59.6,57.3,30.07,West,263,0.0,0.0,92,0.00,CLR,,0.00,WeatherDisplay:10.37,2013-05-08 04:15:00,
2013-05-08 00:30:00,59.2,56.9,30.07,West,263,0.0,0.0,92,0.00,CLR,,0.00,WeatherDisplay:10.37,2013-05-08 04:30:00,
2013-05-08 00:45:00,58.7,56.7,30.06,West,263,0.0,0.0,93,0.00,CLR,,0.00,WeatherDisplay:10.37,2013-05-08 04:45:00,
2013-05-08 01:00:00,58.5,56.8,30.06,West,263,0.0,0.0,94,0.00,CLR,,0.00,WeatherDisplay:10.37,2013-05-08 05:00:00,
2013-05-08 01:15:00,58.2,56.5,30.06,West,263,0.0,0.0,94,0.00,CLR,,0.00,WeatherDisplay:10.37,2013-05-08 05:15:00,
2013-05-08 01:30:00,58.0,56.6,30.06,West,263,0.0,0.0,95,0.00,CLR,,0.00,WeatherDisplay:10.37,2013-05-08 05:30:00,
2013-05-08 01:45:00,57.9,56.4,30.06,West,263,0.0,0.0,95,0.00,CLR,,0.00,WeatherDisplay:10.37,2013-05-08 05:45:00,
2013-05-08 02:00:00,57.6,56.1,30.05,West,263,0.0,0.0,95,0.00,CLR,,0.00,WeatherDisplay:10.37,2013-05-08 06:00:00,
2013-05-08 02:15:00,57.3,55.9,30.05,West,263,0.0,0.0,95,0.00,CLR,,0.00,WeatherDisplay:10.37,2013-05-08 06:15:00,
2013-05-08 02:30:00,57.0,55.6,30.04,West,263,0.0,0.0,95,0.00,CLR,,0.00,WeatherDisplay:10.37,2013-05-08 06:30:00,
2013-05-08 02:45:00,56.7,55.6,30.04,West,263,0.0,0.0,96,0.00,CLR,,0.00,WeatherDisplay:10.37,2013-05-08 06:45:00,
2013-05-08 03:00:00,56.5,55.4,30.04,West,263,0.0,0.0,96,0.00,CLR,,0.00,WeatherDisplay:10.37,2013-05-08 07:00:00,
2013-05-08 03:15:00,56.4,55.3,30.04,West,263,0.0,0.0,96,0.00,CLR,,0.00,WeatherDisplay:10.37,2013-05-08 07:15:00,
2013-05-08 03:30:00,56.5,55.4,30.04,WSW,254,0.0,0.0,96,0.00,CLR,,0.00,WeatherDisplay:10.37,2013-05-08 07:30:00,
2013-05-08 03:45:00,56.2,55.1,30.04,WSW,254,0.0,0.0,96,0.00,CLR,,0.00,WeatherDisplay:10.37,2013-05-08 07:45:00,
2013-05-08 04:00:00,56.0,54.9,30.04,WSW,254,0.0,0.0,96,0.00,CLR,,0.00,WeatherDisplay:10.37,2013-05-08 08:00:00,
2013-05-08 04:15:00,55.7,54.6,30.04,WSW,254,0.0,0.0,96,0.00,CLR,,0.00,WeatherDisplay:10.37,2013-05-08 08:15:00,
2013-05-08 04:30:00,55.4,54.3,30.05,WSW,254,0.0,0.0,96,0.00,CLR,,0.00,WeatherDisplay:10.37,2013-05-08 08:30:00,
2013-05-08 04:45:00,55.2,54.1,30.05,WSW,254,0.0,0.0,96,0.00,CLR,,0.00,WeatherDisplay:10.37,2013-05-08 08:45:00,
2013-05-08 05:00:00,55.1,54.3,30.05,WSW,254,0.0,0.0,97,0.00,CLR,,0.00,WeatherDisplay:10.37,2013-05-08 09:00:00,
2013-05-08 05:15:00,55.1,54.3,30.05,WSW,254,0.0,0.0,97,0.00,CLR,,0.00,WeatherDisplay:10.37,2013-05-08 09:15:00,
2013-05-08 05:30:00,55.4,54.6,30.06,WSW,254,0.0,0.0,97,0.00,CLR,,0.00,WeatherDisplay:10.37,2013-05-08 09:30:00,
2013-05-08 05:45:00,55.4,54.6,30.06,WSW,254,0.0,0.0,97,0.00,CLR,,0.00,WeatherDisplay:10.37,2013-05-08 09:45:00,
2013-05-08 06:00:00,55.0,54.2,30.06,WSW,254,0.0,0.0,97,0.00,CLR,,0.00,WeatherDisplay:10.37,2013-05-08 10:00:00,
2013-05-08 06:15:00,54.7,53.9,30.07,WSW,254,0.0,0.0,97,0.00,CLR,,0.00,WeatherDisplay:10.37,2013-05-08 10:15:00,
2013-05-08 06:30:00,54.5,53.7,30.07,WSW,254,0.0,0.0,97,0.00,CLR,,0.00,WeatherDisplay:10.37,2013-05-08 10:30:00,
2013-05-08 06:45:00,54.7,53.9,30.08,WSW,254,0.0,0.0,97,0.00,CLR,,0.00,WeatherDisplay:10.37,2013-05-08 10:45:00,
2013-05-08 07:00:00,54.4,53.6,30.09,WSW,254,0.0,0.0,97,0.00,CLR,,0.00,WeatherDisplay:10.37,2013-05-08 11:00:00,
2013-05-08 07:15:00,54.3,53.5,30.09,WSW,254,0.0,0.0,97,0.00,CLR,,0.00,WeatherDisplay:10.37,2013-05-08 11:15:00,
2013-05-08 07:30:00,55.6,55.1,30.10,WSW,254,0.0,0.0,98,0.00,CLR,,0.00,WeatherDisplay:10.37,2013-05-08 11:30:00,
2013-05-08 07:45:00,58.0,57.4,30.10,WSW,254,0.0,0.0,98,0.00,CLR,,0.00,WeatherDisplay:10.37,2013-05-08 11:45:00,
2013-05-08 08:00:00,60.1,59.9,30.11,WSW,254,0.0,0.0,99,0.00,CLR,,0.00,WeatherDisplay:10.37,2013-05-08 12:00:00,
2013-05-08 08:15:00,62.7,62.4,30.12,WSW,254,0.0,0.0,99,0.00,CLR,,0.00,WeatherDisplay:10.37,2013-05-08 12:15:00,
2013-05-08 08:30:00,64.4,62.7,30.12,WSW,254,0.0,0.0,94,0.00,CLR,,0.00,WeatherDisplay:10.37,2013-05-08 12:30:00,
2013-05-08 08:45:00,66.2,62.5,30.13,West,269,0.0,2.0,88,0.00,CLR,,0.00,WeatherDisplay:10.37,2013-05-08 12:45:00,
2013-05-08 09:00:00,67.7,63.4,30.13,West,272,0.0,0.0,86,0.00,CLR,,0.00,WeatherDisplay:10.37,2013-05-08 13:00:00,
2013-05-08 09:15:00,69.2,63.1,30.13,West,272,0.0,3.0,81,0.00,CLR,,0.00,WeatherDisplay:10.37,2013-05-08 13:15:00,
2013-05-08 09:30:00,70.7,63.1,30.13,West,272,0.0,0.0,77,0.00,CLR,,0.00,WeatherDisplay:10.37,2013-05-08 13:30:00,
2013-05-08 09:45:00,72.2,62.2,30.13,SW,224,0.0,1.0,71,0.00,CLR,,0.00,WeatherDisplay:10.37,2013-05-08 13:45:00,
2013-05-08 10:00:00,73.9,63.1,30.14,WNW,296,0.0,4.0,69,0.00,CLR,,0.00,WeatherDisplay:10.37,2013-05-08 14:00:00,
2013-05-08 10:15:00,75.1,62.5,30.14,SSW,204,0.0,3.0,65,0.00,CLR,,0.00,WeatherDisplay:10.37,2013-05-08 14:15:00,
2013-05-08 10:30:00,75.4,61.5,30.14,SW,214,1.0,7.0,62,0.00,CLR,,0.00,WeatherDisplay:10.37,2013-05-08 14:30:00,
2013-05-08 10:45:00,76.4,59.0,30.14,WNW,301,0.0,7.0,55,0.00,CLR,,0.00,WeatherDisplay:10.37,2013-05-08 14:45:00,
2013-05-08 11:00:00,76.3,58.4,30.14,WNW,286,5.0,8.0,54,0.00,CLR,,0.00,WeatherDisplay:10.37,2013-05-08 15:00:00,
2013-05-08 11:15:00,76.9,60.0,30.14,SSW,197,1.0,6.0,56,0.00,CLR,,0.00,WeatherDisplay:10.37,2013-05-08 15:15:00,
2013-05-08 11:30:00,77.0,59.6,30.14,West,280,0.0,6.0,55,0.00,CLR,,0.00,WeatherDisplay:10.37,2013-05-08 15:30:00,
2013-05-08 11:45:00,78.3,60.3,30.14,West,280,3.0,8.0,54,0.00,CLR,,0.00,WeatherDisplay:10.37,2013-05-08 15:45:00,
2013-05-08 12:00:00,78.5,62.0,30.13,SW,220,1.0,12.0,57,0.00,CLR,,0.00,WeatherDisplay:10.37,2013-05-08 16:00:00,
2013-05-08 12:15:00,78.9,60.9,30.13,WNW,285,2.0,7.0,54,0.00,CLR,,0.00,WeatherDisplay:10.37,2013-05-08 16:15:00,
2013-05-08 12:30:00,77.9,62.9,30.12,NNW,332,0.0,9.0,60,0.00,CLR,,0.00,WeatherDisplay:10.37,2013-05-08 16:30:00,
2013-05-08 12:45:00,79.0,61.9,30.12,SW,217,0.0,8.0,56,0.00,CLR,,0.00,WeatherDisplay:10.37,2013-05-08 16:45:00,
2013-05-08 13:00:00,78.5,59.4,30.12,NW,306,2.0,7.0,52,0.00,CLR,,0.00,WeatherDisplay:10.37,2013-05-08 17:00:00,
2013-05-08 13:15:00,79.7,61.0,30.11,SW,233,1.0,8.0,53,0.00,CLR,,0.00,WeatherDisplay:10.37,2013-05-08 17:15:00,
2013-05-08 13:30:00,79.7,61.1,30.11,NW,306,2.0,7.0,53,0.00,CLR,,0.00,WeatherDisplay:10.37,2013-05-08 17:30:00,
2013-05-08 13:45:00,79.1,58.9,30.10,West,271,1.0,7.0,50,0.00,CLR,,0.00,WeatherDisplay:10.37,2013-05-08 17:45:00,
2013-05-08 14:00:00,80.6,59.7,30.10,West,259,0.0,10.0,49,0.00,CLR,,0.00,WeatherDisplay:10.37,2013-05-08 18:00:00,
2013-05-08 14:15:00,81.6,61.1,30.10,WNW,297,2.0,8.0,50,0.00,CLR,,0.00,WeatherDisplay:10.37,2013-05-08 18:15:00,
2013-05-08 14:30:00,80.2,59.3,30.10,WNW,300,1.0,9.0,49,0.00,CLR,,0.00,WeatherDisplay:10.37,2013-05-08 18:30:00,
2013-05-08 14:45:00,80.5,61.3,30.10,SW,219,0.0,7.0,52,0.00,CLR,,0.00,WeatherDisplay:10.37,2013-05-08 18:45:00,
2013-05-08 15:00:00,81.6,61.7,30.09,West,266,1.0,6.0,51,0.00,CLR,,0.00,WeatherDisplay:10.37,2013-05-08 19:00:00,
2013-05-08 15:15:00,81.8,60.7,30.09,WNW,282,2.0,7.0,49,0.00,CLR,,0.00,WeatherDisplay:10.37,2013-05-08 19:15:00,
2013-05-08 15:30:00,81.6,61.7,30.09,WNW,293,1.0,10.0,51,0.00,CLR,,0.00,WeatherDisplay:10.37,2013-05-08 19:30:00,
2013-05-08 15:45:00,81.5,61.7,30.08,NW,305,1.0,8.0,51,0.00,CLR,,0.00,WeatherDisplay:10.37,2013-05-08 19:45:00,
2013-05-08 16:00:00,81.7,62.9,30.08,WNW,292,1.0,12.0,53,0.00,CLR,,0.00,WeatherDisplay:10.37,2013-05-08 20:00:00,
2013-05-08 16:15:00,81.5,61.1,30.08,West,260,1.0,7.0,50,0.00,CLR,,0.00,WeatherDisplay:10.37,2013-05-08 20:15:00,
2013-05-08 16:30:00,80.6,61.9,30.07,WNW,287,0.0,7.0,53,0.00,CLR,,0.00,WeatherDisplay:10.37,2013-05-08 20:30:00,
2013-05-08 16:45:00,80.1,63.5,30.07,West,259,0.0,7.0,57,0.00,CLR,,0.00,WeatherDisplay:10.37,2013-05-08 20:45:00,
2013-05-08 17:00:00,81.3,61.5,30.07,WSW,244,0.0,5.0,51,0.00,CLR,,0.00,WeatherDisplay:10.37,2013-05-08 21:00:00,
2013-05-08 17:15:00,80.0,61.3,30.07,WNW,302,0.0,6.0,53,0.00,CLR,,0.00,WeatherDisplay:10.37,2013-05-08 21:15:00,
2013-05-08 17:30:00,81.0,61.7,30.07,WSW,255,1.0,8.0,52,0.00,CLR,,0.00,WeatherDisplay:10.37,2013-05-08 21:30:00,
2013-05-08 17:45:00,80.4,61.7,30.07,WNW,299,1.0,8.0,53,0.00,CLR,,0.00,WeatherDisplay:10.37,2013-05-08 21:45:00,
2013-05-08 18:00:00,79.6,61.0,30.07,WNW,295,2.0,8.0,53,0.00,CLR,,0.00,WeatherDisplay:10.37,2013-05-08 22:00:00,
2013-05-08 18:15:00,79.5,62.4,30.07,West,274,1.0,7.0,56,0.00,CLR,,0.00,WeatherDisplay:10.37,2013-05-08 22:15:00,
2013-05-08 18:30:00,78.6,61.1,30.07,WNW,290,2.0,7.0,55,0.00,CLR,,0.00,WeatherDisplay:10.37,2013-05-08 22:30:00,
2013-05-08 18:45:00,78.5,61.5,30.07,WNW,302,0.0,7.0,56,0.00,CLR,,0.00,WeatherDisplay:10.37,2013-05-08 22:45:00,
2013-05-08 19:00:00,78.0,61.0,30.07,WNW,302,2.0,4.0,56,0.00,CLR,,0.00,WeatherDisplay:10.37,2013-05-08 23:00:00,
2013-05-08 19:15:00,77.5,62.0,30.08,WNW,301,0.0,3.0,59,0.00,CLR,,0.00,WeatherDisplay:10.37,2013-05-08 23:15:00,
2013-05-08 19:30:00,76.7,62.2,30.08,WNW,301,0.0,2.0,61,0.00,CLR,,0.00,WeatherDisplay:10.37,2013-05-08 23:30:00,
2013-05-08 19:45:00,75.7,62.2,30.08,WNW,301,0.0,0.0,63,0.00,CLR,,0.00,WeatherDisplay:10.37,2013-05-08 23:45:00,
2013-05-08 20:00:00,74.6,61.6,30.08,WNW,301,0.0,0.0,64,0.00,CLR,,0.00,WeatherDisplay:10.37,2013-05-09 00:00:00,
2013-05-08 20:15:00,73.1,62.3,30.09,WNW,301,0.0,0.0,69,0.00,CLR,,0.00,WeatherDisplay:10.37,2013-05-09 00:15:00,
2013-05-08 20:30:00,71.4,62.3,30.09,WNW,301,0.0,0.0,73,0.00,CLR,,0.00,WeatherDisplay:10.37,2013-05-09 00:30:00,
2013-05-08 20:45:00,69.6,62.1,30.10,WNW,301,0.0,0.0,77,0.00,CLR,,0.00,WeatherDisplay:10.37,2013-05-09 00:45:00,
2013-05-08 21:00:00,68.3,62.3,30.11,WNW,301,0.0,0.0,81,0.00,CLR,,0.00,WeatherDisplay:10.37,2013-05-09 01:00:00,
2013-05-08 21:15:00,67.7,62.7,30.11,WNW,301,0.0,0.0,84,0.00,CLR,,0.00,WeatherDisplay:10.37,2013-05-09 01:15:00,
2013-05-08 21:30:00,67.5,62.2,30.12,WNW,301,0.0,0.0,83,0.00,CLR,,0.00,WeatherDisplay:10.37,2013-05-09 01:30:00,
2013-05-08 21:45:00,68.0,61.6,30.12,WNW,301,0.0,0.0,80,0.00,CLR,,0.00,WeatherDisplay:10.37,2013-05-09 01:45:00,
2013-05-08 22:00:00,68.4,61.3,30.13,WNW,301,0.0,0.0,78,0.00,CLR,,0.00,WeatherDisplay:10.37,2013-05-09 02:00:00,
2013-05-08 22:15:00,68.3,61.5,30.13,WNW,301,0.0,0.0,79,0.00,CLR,,0.00,WeatherDisplay:10.37,2013-05-09 02:15:00,
2013-05-08 22:30:00,68.1,61.3,30.14,WNW,301,0.0,0.0,79,0.00,CLR,,0.00,WeatherDisplay:10.37,2013-05-09 02:30:00,
2013-05-08 22:45:00,67.9,61.8,30.15,WNW,301,0.0,0.0,81,0.00,CLR,,0.00,WeatherDisplay:10.37,2013-05-09 02:45:00,
2013-05-08 23:00:00,67.4,61.3,30.15,WNW,301,0.0,0.0,81,0.00,CLR,,0.00,WeatherDisplay:10.37,2013-05-09 03:00:00,
2013-05-08 23:15:00,66.9,61.6,30.15,WNW,301,0.0,2.0,83,0.00,CLR,,0.00,WeatherDisplay:10.37,2013-05-09 03:15:00,
2013-05-08 23:30:00,66.5,61.5,30.15,WNW,299,0.0,0.0,84,0.00,CLR,,0.00,WeatherDisplay:10.37,2013-05-09 03:30:00,
2013-05-08 23:45:00,65.8,61.2,30.15,WNW,299,0.0,0.0,85,0.00,CLR,,0.00,WeatherDisplay:10.37,2013-05-09 03:45:00,